Time,TemperatureF,DewpointF,PressureIn,WindDirection,WindDirectionDegrees,WindSpeedMPH,WindSpeedGustMPH,Humidity,HourlyPrecipIn,Conditions,Clouds,dailyrainin,SoftwareType,DateUTC
2013-09-14 00:07:00,55.8,53.0,29.95,NNW,340,1.0,4.0,90,0.00,,,0.00,weatherlink.com 1.10,2013-09-14 04:07:00,
2013-09-14 00:22:00,55.5,53.0,29.95,NNW,330,2.0,3.0,91,0.00,,,0.00,weatherlink.com 1.10,2013-09-14 04:22:00,
2013-09-14 00:37:00,55.1,53.0,29.96,NNW,331,1.0,4.0,92,0.00,,,0.00,weatherlink.com 1.10,2013-09-14 04:37:00,
2013-09-14 00:52:00,55.0,53.0,29.95,NW,304,3.0,5.0,92,0.00,,,0.00,weatherlink.com 1.10,2013-09-14 04:52:00,
2013-09-14 01:07:00,55.9,53.0,29.95,NW,325,0.0,5.0,91,0.00,,,0.00,weatherlink.com 1.10,2013-09-14 05:07:00,
2013-09-14 01:22:00,55.3,53.0,29.95,North,356,0.0,0.0,91,0.00,,,0.00,weatherlink.com 1.10,2013-09-14 05:22:00,
2013-09-14 01:37:00,55.2,53.0,29.95,North,353,0.0,3.0,91,0.00,,,0.00,weatherlink.com 1.10,2013-09-14 05:37:00,
2013-09-14 01:52:00,54.6,52.0,29.95,NE,37,1.0,3.0,91,0.00,,,0.00,weatherlink.com 1.10,2013-09-14 05:52:00,
2013-09-14 02:07:00,55.0,53.0,29.95,NNW,328,0.0,2.0,92,0.00,,,0.00,weatherlink.com 1.10,2013-09-14 06:07:00,
2013-09-14 02:22:00,54.4,52.0,29.95,North,349,1.0,3.0,92,0.00,,,0.00,weatherlink.com 1.10,2013-09-14 06:22:00,
2013-09-14 02:37:00,54.1,52.0,29.96,ENE,62,1.0,10.0,91,0.00,,,0.00,weatherlink.com 1.10,2013-09-14 06:37:00,
2013-09-14 02:52:00,53.8,52.0,29.96,NNW,328,0.0,7.0,92,0.00,,,0.00,weatherlink.com 1.10,2013-09-14 06:52:00,
2013-09-14 03:08:00,53.5,52.0,29.96,North,356,0.0,2.0,93,0.00,,,0.00,weatherlink.com 1.10,2013-09-14 07:08:00,
2013-09-14 03:22:00,53.3,51.0,29.96,NNW,342,1.0,-999.0,93,-99.99,,,0.00,weatherlink.com 1.10,2013-09-14 07:22:00,
2013-09-14 03:37:00,53.0,52.0,29.96,North,11,0.0,2.0,95,0.00,,,0.00,weatherlink.com 1.10,2013-09-14 07:37:00,
2013-09-14 03:52:00,52.6,51.0,29.96,NW,323,2.0,3.0,95,0.00,,,0.00,weatherlink.com 1.10,2013-09-14 07:52:00,
2013-09-14 04:07:00,52.6,51.0,29.96,NW,326,1.0,3.0,95,0.00,,,0.00,weatherlink.com 1.10,2013-09-14 08:07:00,
2013-09-14 04:22:00,52.0,51.0,29.96,NNW,340,0.0,4.0,95,0.00,,,0.00,weatherlink.com 1.10,2013-09-14 08:22:00,
2013-09-14 04:37:00,51.8,51.0,29.96,NW,319,1.0,2.0,95,0.00,,,0.00,weatherlink.com 1.10,2013-09-14 08:37:00,
2013-09-14 04:52:00,51.5,50.0,29.96,NNW,331,1.0,3.0,95,0.00,,,0.00,weatherlink.com 1.10,2013-09-14 08:52:00,
2013-09-14 05:07:00,51.5,50.0,29.97,NW,317,1.0,4.0,95,0.00,,,0.00,weatherlink.com 1.10,2013-09-14 09:07:00,
2013-09-14 05:22:00,51.4,50.0,29.97,NNW,333,1.0,4.0,95,0.00,,,0.00,weatherlink.com 1.10,2013-09-14 09:22:00,
2013-09-14 05:37:00,51.2,50.0,29.97,NNW,328,2.0,3.0,95,0.00,,,0.00,weatherlink.com 1.10,2013-09-14 09:37:00,
2013-09-14 05:52:00,50.8,50.0,29.98,NW,319,1.0,2.0,95,0.00,,,0.00,weatherlink.com 1.10,2013-09-14 09:52:00,
2013-09-14 06:07:00,50.6,49.0,29.99,NW,304,2.0,2.0,95,0.00,,,0.00,weatherlink.com 1.10,2013-09-14 10:07:00,
2013-09-14 06:23:00,50.6,50.0,29.99,NNW,328,0.0,1.0,96,0.00,,,0.00,weatherlink.com 1.10,2013-09-14 10:23:00,
2013-09-14 06:38:00,50.4,49.0,30.00,NE,49,0.0,1.0,95,0.00,,,0.00,weatherlink.com 1.10,2013-09-14 10:38:00,
2013-09-14 06:53:00,50.1,49.0,30.00,SW,219,0.0,1.0,96,0.00,,,0.00,weatherlink.com 1.10,2013-09-14 10:53:00,
2013-09-14 07:08:00,49.4,48.0,30.01,SW,221,0.0,1.0,96,0.00,,,0.00,weatherlink.com 1.10,2013-09-14 11:08:00,
2013-09-14 07:23:00,49.3,49.0,30.02,SSW,210,0.0,1.0,97,0.00,,,0.00,weatherlink.com 1.10,2013-09-14 11:23:00,
2013-09-14 07:38:00,49.7,49.0,30.03,NNW,328,1.0,4.0,97,0.00,,,0.00,weatherlink.com 1.10,2013-09-14 11:38:00,
2013-09-14 07:53:00,49.6,49.0,30.03,NW,309,2.0,2.0,97,0.00,,,0.00,weatherlink.com 1.10,2013-09-14 11:53:00,
2013-09-14 08:08:00,50.2,49.0,30.04,NW,308,0.0,1.0,97,0.00,,,0.00,weatherlink.com 1.10,2013-09-14 12:08:00,
2013-09-14 08:23:00,50.5,50.0,30.04,NW,309,1.0,3.0,97,0.00,,,0.00,weatherlink.com 1.10,2013-09-14 12:23:00,
2013-09-14 08:38:00,51.0,50.0,30.05,NNW,346,1.0,3.0,97,0.00,,,0.00,weatherlink.com 1.10,2013-09-14 12:38:00,
2013-09-14 08:53:00,52.4,51.0,30.05,ENE,67,1.0,4.0,96,0.00,,,0.00,weatherlink.com 1.10,2013-09-14 12:53:00,
2013-09-14 09:08:00,52.6,51.0,30.06,North,354,1.0,3.0,94,0.00,,,0.00,weatherlink.com 1.10,2013-09-14 13:08:00,
2013-09-14 09:23:00,53.9,52.0,30.06,North,360,0.0,3.0,92,0.00,,,0.00,weatherlink.com 1.10,2013-09-14 13:23:00,
2013-09-14 09:38:00,55.5,52.0,30.07,NNE,20,2.0,3.0,88,0.00,,,0.00,weatherlink.com 1.10,2013-09-14 13:38:00,
2013-09-14 09:53:00,57.0,52.0,30.07,NNW,329,0.0,4.0,84,0.00,,,0.00,weatherlink.com 1.10,2013-09-14 13:53:00,
2013-09-14 10:08:00,58.0,51.0,30.07,North,4,2.0,3.0,78,0.00,,,0.00,weatherlink.com 1.10,2013-09-14 14:08:00,
2013-09-14 10:23:00,60.9,53.0,30.08,WSW,241,0.0,1.0,74,0.00,,,0.00,weatherlink.com 1.10,2013-09-14 14:23:00,
2013-09-14 10:38:00,62.2,53.0,30.07,ESE,114,2.0,4.0,71,0.00,,,0.00,weatherlink.com 1.10,2013-09-14 14:38:00,
2013-09-14 10:54:00,63.3,53.0,30.07,South,184,6.0,9.0,70,0.00,,,0.00,weatherlink.com 1.10,2013-09-14 14:54:00,
2013-09-14 11:08:00,63.7,54.0,30.07,South,181,5.0,7.0,71,0.00,,,0.00,weatherlink.com 1.10,2013-09-14 15:08:00,
2013-09-14 11:23:00,64.5,54.0,30.07,SSE,164,4.0,9.0,68,0.00,,,0.00,weatherlink.com 1.10,2013-09-14 15:23:00,
2013-09-14 11:38:00,65.8,55.0,30.07,SSW,210,5.0,6.0,69,0.00,,,0.00,weatherlink.com 1.10,2013-09-14 15:38:00,
2013-09-14 11:53:00,66.6,54.0,30.07,SSW,198,4.0,10.0,64,0.00,,,0.00,weatherlink.com 1.10,2013-09-14 15:53:00,
2013-09-14 12:08:00,67.4,54.0,30.07,SW,233,2.0,7.0,63,0.00,,,0.00,weatherlink.com 1.10,2013-09-14 16:08:00,
2013-09-14 12:23:00,67.7,54.0,30.07,WSW,245,3.0,8.0,62,0.00,,,0.00,weatherlink.com 1.10,2013-09-14 16:23:00,
2013-09-14 12:39:00,68.5,54.0,30.06,South,176,4.0,11.0,60,0.00,,,0.00,weatherlink.com 1.10,2013-09-14 16:39:00,
2013-09-14 12:54:00,69.9,54.0,30.06,SSE,147,2.0,7.0,57,0.00,,,0.00,weatherlink.com 1.10,2013-09-14 16:54:00,
2013-09-14 13:09:00,70.6,54.0,30.06,NNE,25,0.0,6.0,55,0.00,,,0.00,weatherlink.com 1.10,2013-09-14 17:09:00,
2013-09-14 13:24:00,71.8,54.0,30.05,East,92,3.0,7.0,53,0.00,,,0.00,weatherlink.com 1.10,2013-09-14 17:24:00,
2013-09-14 13:39:00,70.9,53.0,30.05,SE,133,5.0,8.0,53,0.00,,,0.00,weatherlink.com 1.10,2013-09-14 17:39:00,
2013-09-14 13:54:00,71.0,53.0,30.05,NNE,21,2.0,6.0,54,0.00,,,0.00,weatherlink.com 1.10,2013-09-14 17:54:00,
2013-09-14 14:09:00,72.8,54.0,30.05,WNW,300,2.0,8.0,51,0.00,,,0.00,weatherlink.com 1.10,2013-09-14 18:09:00,
2013-09-14 14:24:00,73.7,54.0,30.04,North,1,0.0,4.0,51,0.00,,,0.00,weatherlink.com 1.10,2013-09-14 18:24:00,
2013-09-14 14:39:00,73.7,54.0,30.04,SW,221,3.0,6.0,50,0.00,,,0.00,weatherlink.com 1.10,2013-09-14 18:39:00,
2013-09-14 14:54:00,73.2,54.0,30.03,SW,231,0.0,7.0,51,0.00,,,0.00,weatherlink.com 1.10,2013-09-14 18:54:00,
2013-09-14 15:09:00,74.2,54.0,30.03,NE,44,2.0,6.0,50,0.00,,,0.00,weatherlink.com 1.10,2013-09-14 19:09:00,
2013-09-14 15:24:00,75.0,54.0,30.03,SSE,163,0.0,3.0,49,0.00,,,0.00,weatherlink.com 1.10,2013-09-14 19:24:00,
2013-09-14 15:39:00,75.4,55.0,30.02,WSW,257,0.0,5.0,49,0.00,,,0.00,weatherlink.com 1.10,2013-09-14 19:39:00,
2013-09-14 15:54:00,76.7,55.0,30.02,NE,34,0.0,2.0,47,0.00,,,0.00,weatherlink.com 1.10,2013-09-14 19:54:00,
2013-09-14 16:09:00,77.1,55.0,30.02,SSE,156,0.0,3.0,47,0.00,,,0.00,weatherlink.com 1.10,2013-09-14 20:09:00,
2013-09-14 16:24:00,77.2,56.0,30.02,WSW,257,0.0,5.0,49,0.00,,,0.00,weatherlink.com 1.10,2013-09-14 20:24:00,
2013-09-14 16:39:00,75.0,54.0,30.02,NNW,341,1.0,6.0,49,0.00,,,0.00,weatherlink.com 1.10,2013-09-14 20:39:00,
2013-09-14 16:54:00,74.7,55.0,30.03,NW,316,1.0,6.0,51,0.00,,,0.00,weatherlink.com 1.10,2013-09-14 20:54:00,
2013-09-14 17:09:00,73.4,57.0,30.03,NW,313,0.0,5.0,57,0.00,,,0.00,weatherlink.com 1.10,2013-09-14 21:09:00,
2013-09-14 17:24:00,73.5,56.0,30.03,NW,321,2.0,3.0,55,0.00,,,0.00,weatherlink.com 1.10,2013-09-14 21:24:00,
2013-09-14 17:39:00,76.1,58.0,30.03,NW,310,1.0,2.0,54,0.00,,,0.00,weatherlink.com 1.10,2013-09-14 21:39:00,
2013-09-14 17:54:00,74.4,57.0,30.04,NW,324,0.0,3.0,55,0.00,,,0.00,weatherlink.com 1.10,2013-09-14 21:54:00,
2013-09-14 18:09:00,73.3,59.0,30.04,NNW,338,2.0,3.0,61,0.00,,,0.00,weatherlink.com 1.10,2013-09-14 22:09:00,
2013-09-14 18:24:00,72.7,55.0,30.04,NNW,347,2.0,3.0,55,0.00,,,0.00,weatherlink.com 1.10,2013-09-14 22:24:00,
2013-09-14 18:40:00,71.1,58.0,30.04,SW,214,0.0,1.0,64,0.00,,,0.00,weatherlink.com 1.10,2013-09-14 22:40:00,
2013-09-14 18:54:00,68.8,58.0,30.05,South,181,0.0,4.0,69,0.00,,,0.00,weatherlink.com 1.10,2013-09-14 22:54:00,
2013-09-14 19:09:00,69.1,57.0,30.05,South,177,2.0,3.0,66,0.00,,,0.00,weatherlink.com 1.10,2013-09-14 23:09:00,
2013-09-14 19:24:00,68.9,58.0,30.06,SW,228,1.0,5.0,69,0.00,,,0.00,weatherlink.com 1.10,2013-09-14 23:24:00,
2013-09-14 19:39:00,67.9,60.0,30.06,NW,310,0.0,1.0,75,0.00,,,0.00,weatherlink.com 1.10,2013-09-14 23:39:00,
2013-09-14 19:54:00,65.0,59.0,30.07,NW,315,0.0,1.0,82,0.00,,,0.00,weatherlink.com 1.10,2013-09-14 23:54:00,
2013-09-14 20:09:00,63.4,59.0,30.07,NW,312,0.0,1.0,86,0.00,,,0.00,weatherlink.com 1.10,2013-09-15 00:09:00,
2013-09-14 20:24:00,62.0,58.0,30.07,NW,312,0.0,0.0,87,0.00,,,0.00,weatherlink.com 1.10,2013-09-15 00:24:00,
2013-09-14 20:39:00,61.1,58.0,30.08,SW,226,0.0,1.0,89,0.00,,,0.00,weatherlink.com 1.10,2013-09-15 00:39:00,
2013-09-14 20:54:00,60.8,59.0,30.09,NNW,332,0.0,1.0,92,0.00,,,0.00,weatherlink.com 1.10,2013-09-15 00:54:00,
2013-09-14 21:09:00,59.6,57.0,30.09,SW,221,0.0,1.0,91,0.00,,,0.00,weatherlink.com 1.10,2013-09-15 01:09:00,
2013-09-14 21:24:00,58.8,57.0,30.09,SW,225,0.0,1.0,93,0.00,,,0.00,weatherlink.com 1.10,2013-09-15 01:24:00,
2013-09-14 21:39:00,58.5,57.0,30.10,NW,311,0.0,1.0,94,0.00,,,0.00,weatherlink.com 1.10,2013-09-15 01:39:00,
2013-09-14 21:54:00,57.9,56.0,30.10,NW,308,0.0,0.0,94,0.00,,,0.00,weatherlink.com 1.10,2013-09-15 01:54:00,
2013-09-14 22:09:00,57.5,56.0,30.11,WNW,284,0.0,0.0,95,0.00,,,0.00,weatherlink.com 1.10,2013-09-15 02:09:00,
2013-09-14 22:24:00,56.9,56.0,30.11,SW,217,0.0,1.0,95,0.00,,,0.00,weatherlink.com 1.10,2013-09-15 02:24:00,
2013-09-14 22:39:00,56.6,56.0,30.11,SW,218,0.0,1.0,96,0.00,,,0.00,weatherlink.com 1.10,2013-09-15 02:39:00,
2013-09-14 22:54:00,56.3,55.0,30.11,WSW,255,0.0,0.0,95,0.00,,,0.00,weatherlink.com 1.10,2013-09-15 02:54:00,
2013-09-14 23:09:00,56.1,55.0,30.11,WSW,255,0.0,1.0,96,0.00,,,0.00,weatherlink.com 1.10,2013-09-15 03:09:00,
2013-09-14 23:24:00,55.5,54.0,30.12,WSW,246,0.0,0.0,96,0.00,,,0.00,weatherlink.com 1.10,2013-09-15 03:24:00,
2013-09-14 23:39:00,55.3,54.0,30.12,SSW,205,3.0,4.0,96,0.00,,,0.00,weatherlink.com 1.10,2013-09-15 03:39:00,
2013-09-14 23:54:00,55.3,54.0,30.13,SW,218,0.0,3.0,96,0.00,,,0.00,weatherlink.com 1.10,2013-09-15 03:54:00,